sat.trackr.live / text

‹ back to catalog

DROID.002

NORAD 63223 · 2025-052P

PAYLOAD ACTIVE UNKNOWN

§ Identity

Operator
Country
US
Launch date
2025-03-15
Launch site
AFWTR
Launch vehicle
Mass (kg)
RCS (m²)

External: N2YO · Heavens-Above · Gunter

§ Orbital elements

Epoch: 2026-09-22T16:33:24.160608Z

Period
94.51 min
Inclination
97.3786°
Eccentricity
0.0004985
Mean motion
15.23600799 rev/d
Perigee alt
491.6 km
Apogee alt
498.4 km
Semi-major
6,873.1 km
B*
1.5675e-4
RAAN
156.9851°
Arg perigee
132.7197°
Mean anomaly
227.4461°
Rev number
8,471

§ Raw data

DROID.0021 63223U 25052P   26265.68986297  .00003682  00000+0  15675-3 0  99912 63223  97.3786 156.9851 0004985 132.7197 227.4461 15.23600799 84717

JSON: /api/v1/satellites/63223 · /tle

For live sub-satellite position, see the globe view (requires WebGL).

§ Visibility from observer

Set your observer location to see the next 7 days of passes ≥ 10°. The values pass through the URL so the page stays shareable.

No JS? Fill the form by hand. The geolocation button needs JavaScript.

§ Radio — SatNOGS DB

ModeDescriptionDownlinkUplink
FM Mode S - Transmitter 1 2.240 GHz
FM Mode S - Transmitter 2 2.243 GHz
FM Mode X - Transmitter 8.210 GHz

3 transmitters · refreshed weekly from db.satnogs.org